Miscellaneous Local Product
Issued by NWS Hastings, NE

Home | Current Version | Previous Version | Text Only | Print | Product List | Glossary Off
Versions: 1 2 3 4 5 6 7 8 9 10 11 12 13 14 15 16 17 18 19 20 21 22 23 24 25 26 27 28 29 30 31 32 33 34 35 36 37 38 39 40 41 42 43 44 45 46 47 48 49 50

000
AXUS43 KGID 052002
MISGRI

GID CWA HOURLY WEATHER ROUNDUP
NATIONAL WEATHER SERVICE HASTINGS NE
200 PM CST THU MAR 05 2015

NOTE: "FAIR" INDICATES FEW OR NO CLOUDS BELOW 12,000 FEET WITH NO
SIGNIFICANT WEATHER AND/OR OBSTRUCTIONS TO VISIBILITY.

...SOUTH CENTRAL NEBRASKA...

CITY           SKY/WX    TMP DP  RH WIND       PRES   REMARKS
GRAND ISLAND   SUNNY     34   9  35 S12G22    30.34  WCI  25
HASTINGS       SUNNY     35   6  29 S10G17    30.33  WCI  27
KEARNEY        SUNNY     36  12  38 SW15      30.31F WCI  26
ORD            SUNNY     35   5  28 S15       30.27  WCI  25
YORK           SUNNY     32   7  34 S15       30.38F WCI  22
AURORA         SUNNY     32   6  33 S14       30.35F WCI  22
LEXINGTON      SUNNY     38  10  30 S15       30.27F WCI  30
HOLDREGE       SUNNY     37  10  32 SW12G21   30.30F WCI  29
HEBRON         SUNNY     33   2  27 S13       30.41F WCI  24

...NEBRASKA PANHANDLE...

CITY           SKY/WX    TMP DP  RH WIND       PRES   REMARKS
CHADRON        MOSUNNY   37  22  54 W18G25    30.17  WCI  27
ALLIANCE       CLOUDY    43   9  24 NW22G30   30.16
SCOTTSBLUFF    PTSUNNY   46  14  27 NW15      30.20
SIDNEY         PTSUNNY   44  14  29 NW18      30.20

...WESTERN AND NORTH CENTRAL NEBRASKA...

CITY           SKY/WX    TMP DP  RH WIND       PRES   REMARKS
VALENTINE      MOSUNNY   42   6  22 SW7       30.16
AINSWORTH      SUNNY     39   4  22 SW9       30.18F WCI  33
ONEILL         SUNNY     34   5  29 S15G21    30.26F WCI  24
BROKEN BOW     SUNNY     39  10  30 SW15G21   30.24  WCI  31
IMPERIAL         N/A     46   9  22 NW16      30.22
NORTH PLATTE   MOSUNNY   45   7  21 W13       30.21
MCCOOK         SUNNY     47   8  20 W10G20    30.26

...EASTERN NEBRASKA...

CITY           SKY/WX    TMP DP  RH WIND       PRES   REMARKS
NORFOLK        SUNNY     32   3  29 S13       30.34F WCI  22
SO SIOUX CITY  SUNNY     29   2  31 S9        30.41  WCI  20
TEKAMAH        MIX PCPN  28   3  34 SW9       30.44  WCI  19
COLUMBUS       SUNNY     30   3  31 S13G21    30.39F WCI  20
ALBION         SUNNY     32   3  29 S15G22    30.32F WCI  22
OMAHA EPPLEY   SUNNY     25   2  37 S10       30.47  WCI  15
OFFUTT AFB     SUNNY     26   2  36 S9        30.46F WCI  16
MILLARD        SUNNY     28   3  34 S3        30.46F
LINCOLN        SUNNY     30   4  33 S14       30.44  WCI  19
NEBRASKA CITY  SUNNY     27  -6  24 S5        30.47F WCI  21
BEATRICE       SUNNY     31   4  32 S9G20     30.44F WCI  23
FALLS CITY     SUNNY     28   0  29 SE6       30.49  WCI  22

...NORTHERN KANSAS...

CITY           SKY/WX    TMP DP  RH WIND       PRES   REMARKS
GOODLAND       SUNNY     46   9  22 W12       30.26
HILL CITY      SUNNY     44  -2  14 VRB3G17   30.32
NORTON         CLEAR     46  -2  13 SW12G17   30.29F
PHILLIPSBURG   SUNNY     43   9  24 SW7       30.35F
SMITH CENTER   SUNNY     37   9  30 S8        30.37F WCI  31
BELOIT         SUNNY     39   9  28 S9        30.40F WCI  33
HAYS           SUNNY     43   5  21 SW7       30.36F
RUSSELL        SUNNY     42   4  20 SW8       30.35
CONCORDIA      SUNNY     36   7  29 S7        30.41  WCI  30
SALINA         SUNNY     42  10  27 MISG      30.42
TOPEKA         SUNNY     32   4  30 CALM      30.51



USA.gov is the U.S. government's official web portal to all federal, state and local government web resources and services.